When you browse on this site, cookies collect data to enhance your experience and personalize the content and advertising you see.
Visit our Privacy Policy to learn more. By continuing to use the site, you agree to this use of cookies and data.
  • In Switzerland
  • List of Countries
  • For 7 days
  • Water Temperature
  • Weather Map
  • Weather Widgets
  • user-avatar
    Login

    Hourly Weather Algiers

    Today, 13 November, Wednesday

    Time Temperature Precipitation Wind Pressure Humidity
    00:00 +11°C° 0 mm 6 mps 745 mmHg 72%
    01:00 +11°C° 0 mm 6 mps 745 mmHg 71%
    02:00 +11°C° 0 mm 6 mps 745 mmHg 69%
    03:00 +11°C° 0 mm 6 mps 744 mmHg 68%
    04:00 +11°C° 0 mm 6 mps 744 mmHg 66%
    05:00 +12°C° 0 mm 5 mps 744 mmHg 65%
    06:00 +12°C° 0 mm 5 mps 744 mmHg 63%
    07:00 +13°C° 0 mm 5 mps 744 mmHg 63%
    08:00 +14°C° 0 mm 6 mps 744 mmHg 63%
    09:00 +15°C° 0 mm 6 mps 744 mmHg 64%
    10:00 +16°C° 0 mm 7 mps 744 mmHg 62%
    11:00 +17°C° 0 mm 8 mps 744 mmHg 60%
    12:00 +18°C° 0 mm 9 mps 743 mmHg 59%
    13:00 +17°C° 0.2 mm 9 mps 743 mmHg 63%
    14:00 +17°C° 0.2 mm 9 mps 743 mmHg 67%
    15:00 +16°C° 0.2 mm 9 mps 743 mmHg 71%
    16:00 +16°C° 0.3 mm 9 mps 744 mmHg 71%
    17:00 +16°C° 0.3 mm 8 mps 744 mmHg 72%
    18:00 +16°C° 0.3 mm 8 mps 745 mmHg 72%
    19:00 +16°C° 0.2 mm 7 mps 745 mmHg 74%
    20:00 +16°C° 0.2 mm 5 mps 746 mmHg 76%
    21:00 +15°C° 0.2 mm 4 mps 746 mmHg 77%
    22:00 +16°C° 0.1 mm 3 mps 746 mmHg 78%
    23:00 +16°C° 0.1 mm 3 mps 746 mmHg 79%

    Tomorrow, 14 November, Thursday

    Time Temperature Precipitation Wind Pressure Humidity
    00:00 +16°C° 0.1 mm 2 mps 746 mmHg 80%
    01:00 +16°C° 0 mm 3 mps 745 mmHg 79%
    02:00 +14°C° 0 mm 4 mps 745 mmHg 79%
    03:00 +14°C° 0 mm 5 mps 745 mmHg 78%
    04:00 +14°C° 0 mm 5 mps 744 mmHg 77%
    05:00 +14°C° 0 mm 5 mps 744 mmHg 76%
    06:00 +14°C° 0 mm 5 mps 744 mmHg 75%
    07:00 +15°C° 0 mm 5 mps 744 mmHg 70%
    08:00 +16°C° 0 mm 5 mps 743 mmHg 66%
    09:00 +17°C° 0 mm 6 mps 743 mmHg 62%
    10:00 +19°C° 0 mm 5 mps 743 mmHg 58%
    11:00 +20°C° 0 mm 5 mps 742 mmHg 54%
    12:00 +21°C° 0 mm 5 mps 742 mmHg 49%
    13:00 +21°C° 0 mm 6 mps 741 mmHg 49%
    14:00 +21°C° 0 mm 7 mps 741 mmHg 49%
    15:00 +21°C° 0 mm 8 mps 740 mmHg 50%
    16:00 +18°C° 0.1 mm 9 mps 740 mmHg 53%
    17:00 +17°C° 0.1 mm 9 mps 741 mmHg 57%
    18:00 +16°C° 0.1 mm 10 mps 741 mmHg 60%
    19:00 +16°C° 0.3 mm 9 mps 741 mmHg 62%
    20:00 +15°C° 0.3 mm 8 mps 741 mmHg 63%
    21:00 +15°C° 0.3 mm 7 mps 741 mmHg 65%
    22:00 +14°C° 1.4 mm 7 mps 741 mmHg 71%
    23:00 +12°C° 1.4 mm 7 mps 741 mmHg 77%

    Day after tomorrow, 15 November, Friday

    Time Temperature Precipitation Wind Pressure Humidity
    00:00 +11°C° 1.4 mm 7 mps 741 mmHg 83%
    01:00 +11°C° 1.6 mm 7 mps 741 mmHg 79%
    02:00 +11°C° 1.6 mm 7 mps 741 mmHg 74%
    03:00 +11°C° 1.6 mm 6 mps 741 mmHg 70%
    04:00 +11°C° 0.2 mm 7 mps 741 mmHg 69%
    05:00 +11°C° 0.2 mm 7 mps 741 mmHg 68%
    06:00 +11°C° 0.2 mm 7 mps 741 mmHg 67%
    07:00 +11°C° 0.1 mm 6 mps 742 mmHg 66%
    08:00 +13°C° 0.1 mm 6 mps 742 mmHg 63%
    09:00 +13°C° 0.1 mm 6 mps 743 mmHg 60%
    10:00 +14°C° 0.2 mm 5 mps 743 mmHg 57%
    11:00 +14°C° 0.2 mm 5 mps 743 mmHg 54%
    12:00 +15°C° 0.2 mm 5 mps 742 mmHg 51%
    13:00 +15°C° 0.4 mm 5 mps 742 mmHg 52%
    14:00 +14°C° 0.4 mm 5 mps 742 mmHg 53%
    15:00 +14°C° 0.4 mm 6 mps 742 mmHg 54%
    16:00 +14°C° 0.1 mm 5 mps 742 mmHg 55%
    17:00 +13°C° 0.1 mm 5 mps 742 mmHg 56%
    18:00 +13°C° 0.1 mm 4 mps 743 mmHg 57%
    19:00 +12°C° 0.1 mm 4 mps 743 mmHg 58%
    20:00 +12°C° 0.1 mm 4 mps 743 mmHg 59%
    21:00 +12°C° 0.1 mm 5 mps 744 mmHg 59%
    22:00 +12°C° 0 mm 4 mps 743 mmHg 59%
    23:00 +12°C° 0 mm 3 mps 743 mmHg 59%

    16 November, Saturday

    Time Temperature Precipitation Wind Pressure Humidity
    00:00 +11°C° 0 mm 3 mps 743 mmHg 60%
    01:00 +11°C° 0.2 mm 3 mps 743 mmHg 60%
    02:00 +12°C° 0.2 mm 2 mps 743 mmHg 60%
    03:00 +12°C° 0.2 mm 2 mps 742 mmHg 60%
    04:00 +11°C° 0.5 mm 3 mps 742 mmHg 64%
    05:00 +11°C° 0.5 mm 4 mps 742 mmHg 67%
    06:00 +9°C° 0.5 mm 5 mps 742 mmHg 71%
    07:00 +9°C° 0.8 mm 5 mps 743 mmHg 71%
    08:00 +9°C° 0.8 mm 5 mps 743 mmHg 71%
    09:00 +9°C° 0.8 mm 5 mps 743 mmHg 71%
    10:00 +10°C° 0.6 mm 5 mps 743 mmHg 70%
    11:00 +10°C° 0.6 mm 5 mps 743 mmHg 70%
    12:00 +10°C° 0.6 mm 5 mps 743 mmHg 70%
    13:00 +10°C° 0.8 mm 6 mps 743 mmHg 73%
    14:00 +10°C° 0.8 mm 7 mps 743 mmHg 76%
    15:00 +10°C° 0.8 mm 8 mps 743 mmHg 79%
    16:00 +10°C° 0.8 mm 7 mps 744 mmHg 76%
    17:00 +10°C° 0.8 mm 7 mps 745 mmHg 72%
    18:00 +11°C° 0.8 mm 7 mps 745 mmHg 69%
    19:00 +10°C° 0.4 mm 7 mps 746 mmHg 70%
    20:00 +10°C° 0.4 mm 8 mps 746 mmHg 71%
    21:00 +10°C° 0.4 mm 8 mps 747 mmHg 71%
    22:00 +10°C° 0.3 mm 8 mps 747 mmHg 71%
    23:00 +10°C° 0.3 mm 8 mps 747 mmHg 71%

    17 November, Sunday

    Time Temperature Precipitation Wind Pressure Humidity
    00:00 +10°C° 0.3 mm 8 mps 747 mmHg 71%
    01:00 +10°C° 0.4 mm 7 mps 747 mmHg 71%
    02:00 +9°C° 0.4 mm 7 mps 747 mmHg 71%
    03:00 +9°C° 0.4 mm 6 mps 747 mmHg 70%
    04:00 +9°C° 0.2 mm 7 mps 747 mmHg 70%
    05:00 +9°C° 0.2 mm 7 mps 747 mmHg 70%
    06:00 +10°C° 0.2 mm 8 mps 747 mmHg 69%
    07:00 +10°C° 0 mm 8 mps 747 mmHg 66%
    08:00 +11°C° 0 mm 8 mps 747 mmHg 63%
    09:00 +12°C° 0 mm 8 mps 748 mmHg 61%
    10:00 +13°C° 0 mm 8 mps 747 mmHg 57%
    11:00 +13°C° 0 mm 8 mps 747 mmHg 54%
    12:00 +15°C° 0 mm 8 mps 747 mmHg 50%
    13:00 +15°C° 0 mm 8 mps 746 mmHg 52%
    14:00 +15°C° 0 mm 9 mps 746 mmHg 54%
    15:00 +15°C° 0 mm 9 mps 746 mmHg 56%
    16:00 +15°C° 0 mm 8 mps 746 mmHg 59%
    17:00 +14°C° 0 mm 7 mps 746 mmHg 62%
    18:00 +12°C° 0 mm 7 mps 746 mmHg 65%
    19:00 +13°C° 0 mm 6 mps 746 mmHg 64%
    20:00 +13°C° 0 mm 6 mps 746 mmHg 63%
    21:00 +13°C° 0 mm 6 mps 746 mmHg 62%
    22:00 +13°C° 0 mm 6 mps 746 mmHg 60%
    23:00 +13°C° 0 mm 6 mps 746 mmHg 59%

    18 November, Monday

    Time Temperature Precipitation Wind Pressure Humidity
    00:00 +13°C° 0 mm 6 mps 745 mmHg 57%
    01:00 +12°C° 0.1 mm 7 mps 745 mmHg 57%
    02:00 +12°C° 0.1 mm 7 mps 744 mmHg 57%
    03:00 +12°C° 0.1 mm 8 mps 744 mmHg 56%
    04:00 +12°C° 0.5 mm 8 mps 744 mmHg 60%
    05:00 +12°C° 0.5 mm 8 mps 745 mmHg 65%
    06:00 +11°C° 0.5 mm 8 mps 745 mmHg 69%
    07:00 +12°C° 0.5 mm 8 mps 745 mmHg 67%
    08:00 +12°C° 0.5 mm 8 mps 746 mmHg 66%
    09:00 +13°C° 0.5 mm 8 mps 746 mmHg 65%
    10:00 +13°C° 0.2 mm 9 mps 746 mmHg 62%
    11:00 +13°C° 0.2 mm 10 mps 746 mmHg 59%
    12:00 +14°C° 0.2 mm 10 mps 746 mmHg 56%
    13:00 +14°C° 0.1 mm 10 mps 746 mmHg 57%
    14:00 +15°C° 0.1 mm 9 mps 746 mmHg 57%
    15:00 +15°C° 0.1 mm 9 mps 746 mmHg 57%
    16:00 +13°C° 0.1 mm 9 mps 747 mmHg 60%
    17:00 +13°C° 0.1 mm 8 mps 747 mmHg 63%
    18:00 +12°C° 0.1 mm 8 mps 748 mmHg 66%
    19:00 +12°C° 0.1 mm 7 mps 748 mmHg 65%
    20:00 +12°C° 0.1 mm 7 mps 748 mmHg 65%
    21:00 +13°C° 0.1 mm 6 mps 749 mmHg 65%
    22:00 +13°C° 0.1 mm 6 mps 749 mmHg 66%
    23:00 +11°C° 0.1 mm 6 mps 749 mmHg 67%
    Show more